Regional Weather Roundup
Issued by NWS

Home | Current Version | Previous Version | Text Only | Print | Product List | Glossary On
Versions: 1 2 3 4 5 6 7 8 9 10 11 12 13 14 15 16 17 18 19 20 21 22 23 24 25 26 27 28 29 30 31 32 33 34 35 36 37 38 39 40 41 42 43 44 45 46 47 48 49 50
000
ASHW40 PHFO 050510
RWRHI

WEATHER ROUNDUP FOR HAWAII
NATIONAL WEATHER SERVICE HONOLULU HI
700 PM HST WED MAR 04 2015

THIS IS AN AUTOMATED REPORT THAT HAS NOT BEEN QUALITY CONTROLLED.

NOTE..."FAIR" INDICATES FEW OR NO CLOUDS BELOW 12,000 FEET WITH NO
SIGNIFICANT WEATHER AND/OR OBSTRUCTIONS TO VISIBILITY.

* - THESE SITES REPORT LIMITED FIELDS

HIZ001>004-050600-
KAUAI-NIIHAU-

CITY           SKY/WX    TMP DP  RH WIND       PRES   REMARKS
LIHUE APT      PTCLDY    70  62  76 N13       30.02R
PORT ALLEN*      N/A     73 N/A N/A NE14G23     N/A
POIPU*         NOT AVBL
PRINCEVILLE*     N/A     70 N/A N/A MISG        N/A
KOKOLE POINT*  NOT AVBL
MOLOAA DAIRY*  NOT AVBL
WAIMEA HTS*    NOT AVBL
PUU OPAE*      NOT AVBL
PUU LUA*       NOT AVBL
MAKAHA RIDGE*  NOT AVBL
$$

HIZ005>011-050600-
OAHU-

CITY           SKY/WX    TMP DP  RH WIND       PRES   REMARKS
HONOLULU       CLOUDY    72  65  78 N5        29.97R
KALAELOA       MOCLDY    70  64  81 VRB7      29.98R
KANEOHE MCB    LGT RAIN  70  66  87 N20       29.95S
WHEELER FIELD  DRIZZLE   66  64  94 NW7       29.98R
BELLOWS*       NOT AVBL
KAHUKU*        NOT AVBL
WHEELER*       NOT AVBL
WAIANAE HARBOR NOT AVBL
DILLINGHAM*      N/A     70  66  88 MISG        N/A
KAHUKU TRN*      N/A     66  63  88 N12G20      N/A
KAWAILOA*        N/A     64  63  94 N9G15       N/A
KII*             N/A     72  64  78 N17G24      N/A
MAKUA RANGE*     N/A     70  64  83 NE12G29     N/A
OAHU FOREST NW NOT AVBL
SCHOFIELD BRK*   N/A     66  64  94 MISG        N/A
SCHOFIELD S*   NOT AVBL
WAIANAE VLY*   NOT AVBL
KUAOKALA*      NOT AVBL
HONOULIUULI*   NOT AVBL
MOKUOLOE IS*   NOT AVBL
PALEHUA*       NOT AVBL
WAIAWA PHB*    NOT AVBL
$$

HIZ012>013-050600-
MOLOKAI-

CITY           SKY/WX    TMP DP  RH WIND       PRES   REMARKS
MOLOKAI AIRPT  LGT RAIN  66  61  82 E9        29.95F
KALAUPAPA      NOT AVBL
MAKAPULAPAI*   NOT AVBL
MOLOKAI 1*     NOT AVBL
PUU ALII*      NOT AVBL
$$

HIZ016-050600-
KAHOOLAWE-

CITY           SKY/WX    TMP DP  RH WIND       PRES   REMARKS
KAHOOLAWE*     NOT AVBL
HAKIOAWA*      NOT AVBL
HONOKANAIA*      N/A     71  65  81 NW9G17    29.98R
KANELOA*         N/A     72  64  78 MISG      29.17S
KEALIALALO*    NOT AVBL
LUA MAKIKA*    NOT AVBL
$$

HIZ014>015-050600-
LANAI-

CITY           SKY/WX    TMP DP  RH WIND       PRES   REMARKS
LANAI CITY     FAIR      64  60  87 NE22      30.00F
LANAI 1*       NOT AVBL
$$

HIZ017>028-050600-
MAUI-

CITY           SKY/WX    TMP DP  RH WIND       PRES   REMARKS
KAHULUI        CLOUDY    70  62  76 N9        29.98S
KAPALUA-W MAUI NOT AVBL
HANA AIRPORT   NOT AVBL
HANA*          NOT AVBL
HALEAKALA SUMM NOT AVBL
MAALAEA BAY*   NOT AVBL
HALEAKALA*     NOT AVBL
KAUPO GAP*     NOT AVBL
KULA 1*          N/A     46  45  93 E3          N/A
$$

HIZ023>026-050600-
BIG ISLAND OF HAWAII COAST AND LOWER SLOPES-

CITY           SKY/WX    TMP DP  RH WIND       PRES   REMARKS
KAILUA KONA    CLOUDY    73  66  78 S3        29.92S
HILO           CLOUDY    73  58  59 NW8       29.96R
HONOKAA*       NOT AVBL
KAWAIHAE MWT*  NOT AVBL
KAWAIHAE*        N/A     79 N/A N/A E2          N/A
SOUTH POINT*   NOT AVBL
UPOLU AIRPORT* NOT AVBL
KAMUELA*       NOT AVBL
HAKALAU*         N/A     46  43  87 NW2G9       N/A
KALOKO-HONOKO* NOT AVBL
PALI 2*          N/A     63  50  63 VRB16G24    N/A
KEALAKOMO*       N/A     73  55  53 VRB24G35    N/A
KAUPULEHU*     NOT AVBL
KAPAPALA*        N/A     63  60  90 CALM        N/A
LOWER KAHUKU*  NOT AVBL
PUHE CS*       NOT AVBL
PUHO CS*       NOT AVBL
PTA KEAMUKU*     N/A     57  50  77 CALM        N/A
WAIKOLOA*      NOT AVBL
$$

HIZ027>028-050600-
BIG ISLAND OF HAWAII INTERIOR AND SUMMMITS-

CITY           SKY/WX    TMP DP  RH WIND       PRES   REMARKS
BRADSHAW FIELD LGT RAIN  49  46  89 MISG      30.20S
MK VISITOR CEN NOT AVBL
MAUNA KEA*     NOT AVBL
MAUNA LOA*       N/A     37  34  87 MISG        N/A
MAUNA LOA 1*   NOT AVBL
PTA KIPUKA*      N/A     54  46  76 E12G20      N/A
PTA RANGE 17*    N/A     52  45  76 SE12G18     N/A
PTA WEST*        N/A     57  48  72 E7G13       N/A
NENE CABIN*    NOT AVBL
AHUMOA*        NOT AVBL
PTA PORTABLE*  NOT AVBL
PUU MALI*      NOT AVBL
$$

HIC003-050600-
NORTHWEST ISLANDS-

CITY           SKY/WX    TMP DP  RH WIND       PRES   REMARKS
MIDWAY ISLAND  MOSUNNY   61  52  72 E20G26    30.38S
MIDWAY NOS*    NOT AVBL
FRENCH FRIGATE NOT AVBL
$$

PHZ110>124-180-050600-
BUOY REPORTS

STATION/POSITION TIME  TEMP    WIND        PRES    WAVE   SWELL
                       AIR SEA DIR/SP/G            HT/PER HT/DIR
                 (UTC) (F)     (DEG/KT/KT) (MB)    (FT/S) (FT/D)
BUOY 51001       NOT AVBL
BUOY 51101       0500   67 71   20/ 21/ 25 1019.1R  12/ 8   7/ 40
BUOY 51100       0500   71 75   20/ 16/ 19 1014.2R
BUOY 51003       0400   76 78   70/ 19/ 23 1012.7F   9/10   5
BUOY 51004       0449   77 79   50/ 17/ 21 1011.5F   9/10   8/ 80
BARBERS PT BUOY  NOT AVBL
WAIMEA BAY BUOY  0500      77                N/A     7/ 9   3/ 10
KAILUA BAY BUOY  0500      76                N/A     8/10   3/ 90
LANAI BUOY       0500      76                N/A     3/13   2/190
BARBERS PT 2     0500      77                N/A     4/14   2/190
PAUWELA MAUI     0500      74                N/A     8/10   3/ 70
HILO             0500      77                N/A     7/11   3/ 70
KANEOHE BAY BUOY 0500      77                N/A     7/10   2/ 50
HANALEI KAUAI    NOT AVBL
KAHULUI HARBOR   0500   70 76  320/ 10/ 11 1014.9F
HONOLULU HARBOR  0500   72 76   60/  2/  8 1014.6R
KILO NALU        NOT AVBL
HILO HARBOR      0500   74 77  330/  7/  9 1014.2R
MOKUOLOE         0500   71 76   10/ 16/ 18 1015.0S
NAWILIWILI       0500   69 77  350/  9/ 13 1016.1R
WHOTS BUOY       NOT AVBL
BUOY 51028       NOT AVBL
$$

......................KEY........................................
  SKY/WX - SKY CONDITIONS/PRESENT WEATHER
  TMP    - TEMPERATURE IN FAHRENHEIT
  DWPT   - DEWPOINT IN FAHRENHEIT
  RH     - RELATIVE HUMIDITY IN PERCENT
  WIND   - DIRECTION AND SPEED /MPH FOR ISLANDS...KTS FOR BUOYS/
  PRES   - MEAN SEA LEVEL PRESSURE IN INCHES OF HG
  VSB    - VISIBILITY IN MILES
  HX     - HEAT INDEX
  WCI    - WIND CHILL INDEX
  VRB    - VARIABLE WIND DIRECTION
  N/A    - NOT AVAILABLE



USA.gov is the U.S. government's official web portal to all federal, state and local government web resources and services.